FW5774 Weather Reports


Display with metric or nautical units.
time (UTC)temp
F
wind
direction
speed
MPH
gust
MPH
rain 1hr
in
rain 24hr
in
rain mn
in
humidity
%
barometer
mb
20210419021513 38 0 0.0 0.0 0.00 0.00 0.00 94 1017.6
20210419021019 39 0 0.0 0.0 0.00 0.00 0.00 95 1017.7
20210419020512 39 0 0.0 0.0 0.00 0.00 0.00 95 1017.7
20210419020023 39 244 0.0 1.0 0.00 0.00 0.00 94 1017.7
20210419015749 38 244 1.0 3.0 0.00 0.00 0.00 94 1017.7
20210419015027 38 244 1.0 3.0 0.00 0.00 0.00 94 1017.7
20210419014516 38 244 1.0 3.0 0.00 0.00 0.00 94 1017.7
20210419014010 39 244 0.0 2.0 0.00 0.00 0.00 94 1017.6
20210419013511 38 244 1.0 2.0 0.00 0.00 0.00 94 1017.7
20210419013019 38 244 0.0 2.0 0.00 0.00 0.00 94 1017.8
20210419012804 38 0 0.0 0.0 0.00 0.00 0.00 94 1017.8
20210419012204 38 0 0.0 0.0 0.00 0.00 0.00 94 1017.8
20210419011513 39 0 0.0 0.0 0.00 0.00 0.00 94 1017.9
20210419011017 39 0 0.0 0.0 0.00 0.00 0.00 94 1017.7
20210419010529 39 0 0.0 0.0 0.00 0.00 0.00 94 1017.7
20210419010025 39 0 0.0 0.0 0.00 0.00 0.00 94 1017.8
20210419005810 39 0 0.0 0.0 0.00 0.00 0.00 94 1017.8
20210419005221 38 0 0.0 0.0 0.00 0.00 0.00 93 1017.8
20210419004519 38 0 0.0 0.0 0.00 0.00 0.00 93 1017.9
20210419004011 38 0 0.0 0.0 0.00 0.00 0.00 93 1017.8
20210419003512 39 0 0.0 0.0 0.00 0.00 0.00 92 1017.8
20210419003214 39 0 0.0 0.0 0.00 0.00 0.00 93 1017.8
20210419002942 39 0 0.0 0.0 0.00 0.00 0.00 93 1017.8
20210419002321 39 0 0.0 0.0 0.00 0.00 0.00 93 1017.8
20210419001520 39 0 0.0 0.0 0.00 0.00 0.00 92 1018.0
20210419001022 39 0 0.0 0.0 0.00 0.00 0.00 92 1018.1
20210419000532 39 0 0.0 0.0 0.00 0.00 0.00 91 1018.0
20210419000023 39 0 0.0 0.0 0.00 0.00 0.00 91 1018.2
20210418235735 40 0 0.0 0.0 0.00 0.00 0.00 90 1018.3
20210418235228 40 0 0.0 0.0 0.00 0.00 0.00 91 1018.3
20210418234519 41 0 0.0 0.0 0.00 0.00 0.00 91 1018.3
20210418234022 40 244 0.0 1.0 0.00 0.00 0.00 91 1018.3
20210418233519 40 244 1.0 2.0 0.00 0.00 0.00 91 1018.4
20210418233139 40 247 1.0 2.0 0.00 0.00 0.00 91 1018.4
20210418233022 40 253 2.0 2.0 0.00 0.00 0.00 90 1018.6
20210418232541 40 255 2.0 2.0 0.00 0.00 0.00 90 1018.5
20210418231527 40 255 1.0 2.0 0.00 0.00 0.00 90 1018.6
20210418231019 40 256 1.0 2.0 0.00 0.00 0.00 90 1018.6
20210418230517 40 256 1.0 2.0 0.00 0.00 0.00 89 1018.6
20210418230028 41 256 1.0 2.0 0.00 0.00 0.00 87 1018.7
20210418225842 42 257 0.0 1.0 0.00 0.00 0.00 87 1018.7
20210418225241 42 257 0.0 1.0 0.00 0.00 0.00 87 1018.7
20210418224528 42 257 0.0 2.0 0.00 0.00 0.00 87 1018.7
20210418224028 42 257 1.0 2.0 0.00 0.00 0.00 86 1018.7
20210418223513 43 257 1.0 2.0 0.00 0.00 0.00 85 1018.7
20210418223035 43 257 1.0 2.0 0.00 0.00 0.00 85 1018.7
20210418222843 43 263 1.0 3.0 0.00 0.00 0.00 86 1018.7
20210418222239 42 282 1.0 3.0 0.00 0.00 0.00 86 1018.7
20210418221522 43 324 0.0 2.0 0.00 0.00 0.00 84 1018.7
20210418221025 43 355 0.0 1.0 0.00 0.00 0.00 81 1018.7
20210418220510 45 355 0.0 1.0 0.00 0.00 0.00 81 1018.7
20210418220021 45 3 1.0 4.0 0.00 0.00 0.00 81 1018.7
20210418215830 45 351 1.0 4.0 0.00 0.00 0.00 80 1018.6
20210418215244 45 6 1.0 3.0 0.00 0.00 0.00 81 1018.7
20210418214521 45 26 1.0 3.0 0.00 0.00 0.00 81 1018.7
20210418214020 45 25 1.0 3.0 0.00 0.00 0.00 81 1018.8
20210418213511 45 30 1.0 4.0 0.00 0.00 0.00 81 1018.9
20210418213020 45 42 1.0 4.0 0.00 0.00 0.00 81 1018.9
20210418212836 45 60 1.0 3.0 0.00 0.00 0.00 81 1018.9
20210418212308 46 60 1.0 4.0 0.00 0.00 0.00 81 1019.0
20210418211525 46 41 1.0 4.0 0.00 0.00 0.00 81 1019.0
20210418211021 46 34 0.0 3.0 0.00 0.00 0.00 81 1018.9
20210418210517 46 29 0.0 3.0 0.00 0.00 0.00 81 1019.0
20210418210044 46 28 1.0 5.0 0.00 0.00 0.00 81 1018.8
20210418205919 46 9 1.0 5.0 0.00 0.00 0.00 81 1018.8
20210418205234 46 353 1.0 4.0 0.00 0.00 0.00 80 1018.9
20210418204531 46 355 1.0 4.0 0.00 0.00 0.00 80 1018.8
20210418204020 46 10 1.0 3.0 0.00 0.00 0.00 81 1018.9
20210418203512 46 7 1.0 3.0 0.00 0.00 0.00 80 1019.1
20210418203019 46 356 1.0 3.0 0.00 0.00 0.00 81 1019.0
20210418202831 46 357 1.0 3.0 0.00 0.00 0.00 80 1019.0
20210418202309 46 18 1.0 4.0 0.00 0.00 0.00 80 1019.1
20210418201515 46 16 1.0 4.0 0.00 0.00 0.00 80 1019.1
20210418201029 46 355 0.0 3.0 0.00 0.00 0.00 80 1019.1
20210418200526 46 4 0.0 3.0 0.00 0.00 0.00 80 1019.0
20210418200026 46 25 1.0 3.0 0.00 0.00 0.00 80 1019.0
20210418195821 46 26 1.0 3.0 0.00 0.00 0.00 79 1019.1
20210418195152 46 22 0.0 1.0 0.00 0.00 0.00 80 1019.0
20210418194513 46 19 1.0 3.0 0.00 0.00 0.00 80 1018.9
20210418194028 46 26 1.0 4.0 0.00 0.00 0.00 79 1019.1
20210418193514 46 32 2.0 4.0 0.00 0.00 0.00 79 1019.0
20210418193052 46 28 1.0 4.0 0.00 0.00 0.00 79 1019.0
20210418192924 46 33 1.0 3.0 0.00 0.00 0.00 78 1019.0
20210418192423 46 55 1.0 4.0 0.00 0.00 0.00 78 1019.1
20210418191512 46 47 1.0 4.0 0.00 0.00 0.00 78 1019.1
20210418191048 46 41 1.0 3.0 0.00 0.00 0.00 78 1019.0
20210418190509 46 38 1.0 3.0 0.00 0.00 0.00 78 1019.0
20210418190023 46 50 1.0 3.0 0.00 0.00 0.00 78 1019.0
20210418185727 46 56 1.0 3.0 0.00 0.00 0.00 78 1019.0
20210418185124 46 45 1.0 3.0 0.00 0.00 0.00 78 1019.1
20210418184513 46 51 1.0 3.0 0.00 0.00 0.00 78 1019.1
20210418184021 46 61 0.0 2.0 0.00 0.00 0.00 78 1019.1
20210418183520 46 61 1.0 2.0 0.00 0.00 0.00 78 1019.1
20210418183033 46 61 1.0 2.0 0.00 0.00 0.00 79 1019.1
20210418182752 46 56 1.0 2.0 0.00 0.00 0.00 77 1019.2
20210418182145 46 62 1.0 4.0 0.00 0.00 0.00 77 1019.1
20210418181522 46 70 3.0 6.0 0.00 0.00 0.00 77 1019.1
20210418181027 46 74 3.0 6.0 0.00 0.00 0.00 77 1019.1
20210418180511 46 75 3.0 6.0 0.00 0.00 0.00 77 1019.0
20210418180022 46 74 4.0 6.0 0.00 0.00 0.00 77 1019.1
20210418175801 47 74 4.0 6.0 0.00 0.00 0.00 77 1019.1
20210418175047 47 74 5.0 8.0 0.00 0.00 0.00 77 1019.1
20210418174511 47 73 4.0 8.0 0.00 0.00 0.00 76 1019.1
20210418174026 47 75 4.0 7.0 0.00 0.00 0.00 77 1018.9
20210418173510 47 73 4.0 7.0 0.00 0.00 0.00 77 1018.9
20210418173056 47 72 3.0 5.0 0.00 0.00 0.00 77 1018.8
20210418172917 47 74 3.0 5.0 0.00 0.00 0.00 77 1018.8
20210418172345 47 77 4.0 6.0 0.00 0.00 0.00 77 1018.7
20210418171529 47 76 4.0 6.0 0.00 0.00 0.00 77 1018.7
20210418171018 47 75 4.0 7.0 0.00 0.00 0.00 77 1018.6
20210418170519 47 77 5.0 8.0 0.00 0.00 0.00 76 1018.6
20210418170021 47 77 6.0 9.0 0.00 0.00 0.00 75 1018.5
20210418165729 47 80 5.0 9.0 0.00 0.00 0.00 75 1018.5
20210418165031 47 81 6.0 10.0 0.00 0.00 0.00 75 1018.4
20210418164524 47 77 7.0 10.0 0.00 0.00 0.00 75 1018.4
20210418164024 47 73 6.0 10.0 0.00 0.00 0.00 74 1018.4
20210418163525 48 70 5.0 8.0 0.00 0.00 0.00 74 1018.3
20210418163140 47 70 5.0 9.0 0.00 0.00 0.00 74 1018.3
20210418162926 48 70 5.0 9.0 0.00 0.00 0.00 74 1018.3
20210418162456 48 72 5.0 9.0 0.00 0.00 0.00 74 1018.4
20210418161518 48 75 5.0 10.0 0.00 0.00 0.00 74 1018.3
20210418161024 48 74 5.0 10.0 0.00 0.00 0.00 73 1018.2
20210418160514 48 74 6.0 9.0 0.00 0.00 0.00 73 1018.3
20210418160027 48 77 7.0 9.0 0.00 0.00 0.00 73 1018.2
20210418155801 48 78 7.0 9.0 0.00 0.00 0.00 73 1018.3
20210418155106 48 77 6.0 10.0 0.00 0.00 0.00 73 1018.1
20210418154512 48 76 6.0 10.0 0.00 0.00 0.00 74 1018.2
20210418154020 48 84 7.0 10.0 0.00 0.00 0.00 74 1018.2
20210418153510 48 89 6.0 10.0 0.00 0.00 0.00 74 1018.3
20210418153020 48 86 6.0 9.0 0.00 0.00 0.00 73 1018.1
20210418152707 48 79 7.0 10.0 0.00 0.00 0.00 73 1018.1
20210418152126 48 79 6.0 10.0 0.00 0.00 0.00 73 1018.1
20210418151511 48 79 6.0 10.0 0.00 0.00 0.00 74 1018.1
20210418151021 48 76 6.0 10.0 0.00 0.00 0.00 73 1018.1
20210418150511 48 80 7.0 11.0 0.00 0.00 0.00 72 1018.1
20210418150021 48 82 6.0 11.0 0.00 0.00 0.00 73 1017.9
20210418145739 48 74 6.0 10.0 0.00 0.00 0.00 71 1017.9
20210418145110 48 73 6.0 10.0 0.00 0.00 0.00 71 1018.0
20210418144509 48 76 6.0 11.0 0.00 0.00 0.00 72 1017.9
20210418144028 48 72 6.0 11.0 0.00 0.00 0.00 72 1017.9
20210418143509 48 68 4.0 9.0 0.00 0.00 0.00 72 1017.9
20210418143029 48 72 4.0 7.0 0.00 0.00 0.00 72 1017.9
20210418142815 48 72 5.0 10.0 0.00 0.00 0.00 72 1017.9
20210418142244 48 77 6.0 10.0 0.00 0.00 0.00 71 1017.9
20210418141519 48 80 6.0 11.0 0.00 0.00 0.00 73 1017.9
20210418141023 48 79 6.0 11.0 0.00 0.00 0.00 71 1017.9
20210418140511 48 83 7.0 9.0 0.00 0.00 0.00 70 1017.8
20210418140041 49 88 5.0 9.0 0.00 0.00 0.00 71 1017.8
20210418135849 49 89 5.0 8.0 0.00 0.00 0.00 71 1017.9
20210418135235 49 88 6.0 9.0 0.00 0.00 0.00 71 1018.0
20210418134519 49 81 5.0 9.0 0.00 0.00 0.00 70 1018.0
20210418134025 49 76 5.0 9.0 0.00 0.00 0.00 71 1017.9
20210418133515 49 74 6.0 9.0 0.00 0.00 0.00 69 1017.9
20210418133022 49 75 7.0 10.0 0.00 0.00 0.00 69 1017.9
20210418132725 49 81 6.0 10.0 0.00 0.00 0.00 70 1017.9
20210418132049 49 78 6.0 11.0 0.00 0.00 0.00 71 1017.9
20210418131516 49 75 5.0 11.0 0.00 0.00 0.00 68 1018.0
20210418131026 49 81 4.0 8.0 0.00 0.00 0.00 68 1018.0
20210418130514 49 73 4.0 9.0 0.00 0.00 0.00 69 1018.0
20210418130223 49 65 4.0 12.0 0.00 0.00 0.00 70 1018.0
20210418130053 49 80 5.0 12.0 0.00 0.00 0.00 70 1018.0
20210418125713 49 85 7.0 11.0 0.00 0.00 0.00 71 1017.9
20210418124538 49 85 6.0 11.0 0.00 0.00 0.00 71 1018.0
20210418124104 48 85 4.0 8.0 0.00 0.00 0.00 69 1018.0
20210418123900 49 87 5.0 9.0 0.00 0.00 0.00 69 1018.0
20210418123446 49 95 6.0 10.0 0.00 0.00 0.00 72 1018.0
20210418123112 49 98 7.0 12.0 0.00 0.00 0.00 70 1018.0
20210418122356 49 97 5.0 12.0 0.00 0.00 0.00 72 1018.0
20210418121519 48 83 3.0 7.0 0.00 0.00 0.00 72 1018.0
20210418121058 49 96 4.0 9.0 0.00 0.00 0.00 73 1018.1
20210418120540 48 95 4.0 9.0 0.00 0.00 0.00 73 1018.1
20210418120201 48 96 4.0 7.0 0.00 0.00 0.00 75 1018.0
20210418115932 48 123 4.0 7.0 0.00 0.00 0.00 73 1018.0
20210418115258 48 143 5.0 10.0 0.00 0.00 0.00 73 1018.0
20210418114520 48 145 5.0 11.0 0.00 0.00 0.00 74 1018.2
20210418114021 49 143 4.0 11.0 0.00 0.00 0.00 75 1018.2
20210418113523 48 141 5.0 10.0 0.00 0.00 0.00 75 1018.2
20210418113057 48 128 6.0 10.0 0.00 0.00 0.00 76 1018.2
20210418112935 48 105 6.0 10.0 0.00 0.00 0.00 75 1018.0
20210418112317 47 102 5.0 10.0 0.00 0.00 0.00 76 1018.1
20210418111516 47 107 5.0 9.0 0.00 0.00 0.00 78 1018.1
20210418111022 47 96 6.0 10.0 0.00 0.00 0.00 80 1018.1
20210418110520 47 91 6.0 10.0 0.00 0.00 0.00 78 1018.1
20210418110117 47 117 6.0 11.0 0.00 0.00 0.00 78 1018.0
20210418105845 47 150 5.0 11.0 0.00 0.00 0.00 77 1018.2
20210418105242 47 123 6.0 9.0 0.00 0.00 0.00 78 1018.1
20210418104524 47 99 6.0 9.0 0.00 0.00 0.00 78 1018.4
20210418104022 46 115 8.0 12.0 0.00 0.00 0.00 79 1018.4
20210418103538 46 122 9.0 13.0 0.00 0.00 0.00 79 1018.4
20210418103027 46 123 7.0 13.0 0.00 0.00 0.00 79 1018.3
20210418102841 47 119 5.0 11.0 0.00 0.00 0.00 80 1018.1
20210418102255 47 106 5.0 11.0 0.00 0.00 0.00 79 1018.2
20210418101529 47 106 6.0 10.0 0.00 0.00 0.00 82 1018.2
20210418101020 46 120 7.0 10.0 0.00 0.00 0.00 80 1018.0
20210418100513 47 114 8.0 12.0 0.00 0.00 0.00 80 1018.1
20210418100033 46 115 7.0 12.0 0.00 0.00 0.00 79 1018.2
20210418095914 46 120 7.0 12.0 0.00 0.00 0.00 80 1018.2
20210418095343 47 116 8.0 12.0 0.00 0.00 0.00 83 1018.3
20210418094515 46 120 7.0 12.0 0.00 0.00 0.00 83 1018.3
20210418094025 46 135 6.0 12.0 0.00 0.00 0.00 85 1018.4
20210418093511 46 157 6.0 10.0 0.00 0.00 0.00 86 1018.4
20210418093037 45 147 7.0 11.0 0.00 0.00 0.00 87 1018.4
20210418092728 45 130 7.0 11.0 0.00 0.00 0.00 88 1018.5
20210418092131 45 128 6.0 11.0 0.00 0.00 0.00 89 1018.5
20210418091516 45 138 6.0 10.0 0.00 0.00 0.00 88 1018.5
20210418091019 45 132 5.0 9.0 0.00 0.00 0.00 89 1018.5
20210418090518 44 119 4.0 8.0 0.00 0.00 0.00 88 1018.5
20210418090046 44 134 4.0 8.0 0.00 0.01 0.00 87 1018.4
20210418085834 44 127 4.0 8.0 0.00 0.01 0.00 88 1018.5
20210418085139 44 110 5.0 8.0 0.00 0.01 0.00 90 1018.6
20210418084518 44 126 5.0 9.0 0.00 0.01 0.00 90 1018.5
20210418084018 43 135 4.0 9.0 0.00 0.01 0.00 90 1018.5
20210418083509 43 137 5.0 8.0 0.00 0.01 0.00 90 1018.6
20210418083026 43 130 5.0 8.0 0.00 0.01 0.00 91 1018.6
20210418082743 43 118 4.0 8.0 0.00 0.01 0.00 91 1018.7
20210418082039 43 113 5.0 8.0 0.00 0.01 0.00 90 1018.6
20210418081517 43 107 5.0 8.0 0.00 0.01 0.00 90 1018.6
20210418081029 43 111 5.0 8.0 0.00 0.01 0.00 91 1018.6
20210418080517 43 120 5.0 8.0 0.00 0.01 0.00 91 1018.7
20210418080141 43 125 5.0 8.0 0.00 0.01 0.00 91 1018.6
20210418080038 43 122 4.0 7.0 0.00 0.01 0.00 91 1018.6
20210418075235 43 122 4.0 8.0 0.00 0.01 0.00 91 1018.5
20210418074514 43 120 4.0 8.0 0.00 0.01 0.00 91 1018.5
20210418074021 43 106 4.0 8.0 0.00 0.01 0.00 92 1018.6
20210418073513 43 108 4.0 9.0 0.00 0.01 0.00 91 1018.6
20210418073025 43 110 4.0 9.0 0.00 0.01 0.00 92 1018.5
20210418072708 43 101 4.0 7.0 0.00 0.01 0.00 92 1018.5
20210418072109 43 97 4.0 7.0 0.00 0.01 0.00 92 1018.4
20210418071523 42 92 4.0 8.0 0.00 0.01 0.00 93 1018.4
20210418071034 42 82 4.0 8.0 0.00 0.01 0.00 93 1018.3
20210418070511 42 81 3.0 5.0 0.00 0.01 0.00 94 1018.5
20210418070021 42 97 3.0 5.0 0.00 0.01 0.00 95 1018.4
20210418065750 42 99 2.0 4.0 0.00 0.01 0.00 95 1018.5
20210418065148 42 95 2.0 4.0 0.00 0.01 0.00 95 1018.5
20210418064510 42 92 3.0 7.0 0.00 0.01 0.00 95 1018.5
20210418064020 42 92 4.0 7.0 0.00 0.01 0.00 96 1018.6
20210418063511 42 94 4.0 7.0 0.00 0.01 0.00 96 1018.5
20210418063021 42 92 4.0 7.0 0.00 0.01 0.00 96 1018.5
20210418062741 41 90 4.0 7.0 0.00 0.01 0.00 96 1018.5
20210418062055 41 86 4.0 7.0 0.00 0.01 0.00 97 1018.4
20210418061519 41 85 4.0 7.0 0.00 0.01 0.00 97 1018.4
20210418061019 41 83 4.0 7.0 0.00 0.01 0.00 97 1018.4
20210418060511 41 82 3.0 5.0 0.00 0.01 0.00 97 1018.4
20210418060139 41 88 3.0 6.0 0.00 0.01 0.00 97 1018.4
20210418055911 41 95 3.0 6.0 0.00 0.01 0.00 97 1018.3
20210418055243 41 95 4.0 7.0 0.00 0.01 0.00 97 1018.2
20210418054522 41 95 4.0 7.0 0.00 0.01 0.00 97 1018.3
20210418054025 41 98 3.0 6.0 0.00 0.01 0.00 97 1018.2
20210418053515 40 98 3.0 6.0 0.00 0.01 0.00 97 1018.2
20210418053049 41 99 3.0 6.0 0.00 0.01 0.00 97 1018.2
20210418052833 40 99 2.0 6.0 0.00 0.01 0.00 98 1018.2
20210418052250 41 96 2.0 3.0 0.00 0.01 0.00 98 1018.0
20210418051515 41 96 2.0 3.0 0.00 0.01 0.00 98 1018.0
20210418051020 40 97 2.0 3.0 0.00 0.01 0.00 98 1017.9
20210418050526 40 98 2.0 3.0 0.00 0.01 0.00 98 1018.0
20210418050043 40 93 2.0 3.0 0.00 0.01 0.00 98 1018.0
20210418045819 40 88 2.0 3.0 0.00 0.01 0.00 98 1017.9
20210418045134 40 86 2.0 4.0 0.00 0.01 0.00 97 1018.0
20210418044513 40 79 3.0 4.0 0.00 0.01 0.00 97 1018.0
20210418044020 40 76 3.0 5.0 0.00 0.01 0.00 97 1018.0
20210418043520 40 78 3.0 5.0 0.00 0.01 0.00 97 1018.0
20210418043026 40 79 3.0 4.0 0.00 0.01 0.00 97 1018.0
20210418042840 40 80 3.0 4.0 0.00 0.02 0.00 97 1017.9
20210418042218 40 81 3.0 4.0 0.00 0.02 0.00 97 1017.9
20210418041513 40 81 2.0 3.0 0.00 0.02 0.00 97 1017.8
20210418041023 40 79 2.0 4.0 0.00 0.02 0.00 97 1018.1
20210418040512 40 82 2.0 4.0 0.00 0.02 0.00 97 1017.9
20210418040021 40 86 2.0 3.0 0.00 0.02 0.00 97 1018.0
20210418035751 40 88 2.0 3.0 0.00 0.02 0.00 97 1018.0
20210418035145 40 90 1.0 3.0 0.00 0.02 0.00 97 1018.0
20210418034520 40 0 0.0 0.0 0.00 0.02 0.00 97 1018.0
20210418034033 40 0 0.0 0.0 0.00 0.02 0.00 97 1018.0
20210418033522 40 0 0.0 0.0 0.00 0.02 0.00 97 1018.0
20210418033045 40 0 0.0 0.0 0.00 0.02 0.00 97 1018.0
20210418032911 40 0 0.0 0.0 0.00 0.02 0.00 97 1017.9
20210418032356 40 0 0.0 0.0 0.00 0.02 0.00 97 1018.2
20210418031511 40 92 0.0 2.0 0.00 0.02 0.00 97 1018.0
20210418031023 40 92 1.0 2.0 0.00 0.02 0.00 97 1018.0
20210418030510 40 92 1.0 2.0 0.00 0.02 0.00 97 1018.2
20210418030224 40 90 2.0 3.0 0.00 0.02 0.00 97 1018.2
20210418025918 40 84 2.0 3.0 0.00 0.02 0.00 97 1018.1
20210418025335 40 79 2.0 3.0 0.00 0.02 0.00 97 1018.3
20210418024516 40 75 2.0 4.0 0.00 0.02 0.00 97 1018.3
20210418024035 40 74 2.0 4.0 0.00 0.02 0.00 97 1018.3
20210418023513 40 77 1.0 3.0 0.00 0.02 0.00 97 1018.4
20210418023029 40 73 1.0 3.0 0.00 0.02 0.00 97 1018.3
20210418022748 40 69 1.0 3.0 0.00 0.02 0.00 97 1018.4